Campbell AAF (Fort Campbell) Air Field Fort Campbell, Hopkinsville US
ICAO: KHOP
IATA: HOP
Category: Medium
Scheduled Services: No

Elevation: 573 ft
TransAlt. 18000 ft.

Airport Communications:
APP:118.1
ATIS:125.175
CLNC DEL:138.8
DEP:118.1
GND:121.8
PMSV METRO:34.33
EAGLE CON:65.2
PTD:130.65
TWR:120.9

KHOP Zoom In..

If you have problems with the map follow the link
https://www.worldairports.se/pages/airport.php?
ICAO=KHOP

Runways:

(A) RW 05 length 11822 ft width 200 ft
---- / hdg 45

(B) RW 18 length 4001 ft width 155 ft
---- / hdg 180

(C) RW 23 length 11822 ft width 200 ft
ILS 111.90 / hdg 225

(D) RW 36 length 4001 ft width 155 ft
---- / hdg 360

Location; KHOP
Day. 14 / Time. 10.56 Zulu
* Altimeter: 30.43
* Temperature: -03° c. -26.6°f.
* Wind from: 020° Speed 10 kn.
Dewpoint: -06° c.
Visibility: 10 Statute Miles.
Clouds: Few 2600 ft.
Clouds: Overcast 13000 ft.

KHOP 141056Z AUTO 02010KT 10SM FEW026 OVC130 M03/M06 A3043 RMK AO2 SLP313 T10301060 FZRANO $


Wind From 020°
Speed 10 kn.

 
 
jpsmedia.com for Web Design worldairports.se 2018   terms of use